SCP
0 0 0 0 0 0 0 0 0 0 0 0 0 0 0 0 0 0 0 0 0 0 0 0 0 0 0 0 0 0 0 0 0 0 0 0 0 0 0 0 0 0 0 0
0 0 0 0 0 0 0 0 0 0 0 0 0 0 0 0 0 0 0 0 0 0 0 0 0 0 0 0 0 0 0 0 0 0 0 0 0 0 0 0 0 0 0 0
0 0 0 0 0 0 0 0 0 0 0 0 0 0 0 0 0 0 0 0 0 0 0 0 0 0 0 0 0 0 0 0 0 0 0 0 0 0 0 0 0 0 0 0
0 0 0 0 0 0 0 0 0 0 0 0 0 0 0 0 0 0 0 0 0 0 0 0 0 0 0 0 0 0 0 0 0 0 0 0 0 0 0 0 0 0 0 0
0 0 0 0 0 0 0 0 0 0 0 0 0 0 0 0 0 0 0 0 0 0 0 0 0 0 0 0 0 0 0 0 0 0 0 0 0 0 0 0 0 0 0 0
0 0 0 0 0 0 0 0 0 0 0 0 0 0 0 0 0 0 0 0 0 0 0 0 0 0 0 0 0 0 0 0 0 0 0 0 0 0 0 0 0 0 0 0
0 0 0 0 0 0 0 0 0 0 0 0 0 0 0 0 0 0 0 0 0 0 0 0 0 0 0 0 0 0 0 0 0 0 0 0 0 0 0 0 0 0 0 0
0 0 0 0 0 0 0 0 0 0 0 0 0 0 0 0 0 0 0 0 0 0 0 0 0 0 0 0 0 0 0 0 0 0 0 0 0 0 0 0 0 0 0 0
0 0 0 0 0 0 0 0 0 0 0 0 0 0 0 0 0 0 0 0 0 0 0 0 0 0 0 0 0 0 0 0 0 0 0 0 0 0 0 0 0 0 0 0
0 0 0 0 0 0 0 0 0 0 0 0 0 0 0 0 0 0 0 0 0 0 0 0 0 0 0 0 0 0 0 0 0 0 0 0 0 0 0 0 0 0 0 0
0 0 0 0 0 0 0 0 0 0 0 0 0 0 0 0 0 0 0 0 0 0 0 0 0 0 0 0 0 0 0 0 0 0 0 0 0 0 0 0 0 0 0 0
0 0 0 0 0 0 0 0 0 0 0 0 0 0 0 0 0 0 0 0 0 0 0 0 0 0 0 0 0 0 0 0 0 0 0 0 0 0 0 0 0 0 0 0
0 0 0 0 0 0 0 0 0 0 0 0 0 0 0 0 0 0 0 0 0 0 0 0 0 0 0 0 0 0 0 0 0 0 0 0 0 0 0 0 0 0 0 0
0 0 0 0 0 0 0 0 0 0 0 0 0 0 0 0 0 0 0 0 0 0 0 0 0 0 0 0 0 0 0 0 0 0 0 0 0 0 0 0 0 0 0 0
0 0 0 0 0 0 0 0 0 0 0 0 0 0 0 0 0 0 0 0 0 0 0 0 0 0 0 0 0 0 0 0 0 0 0 0 0 0 0 0 0 0 0 0
0 0 0 0 0 0 0 0 0 0 0 0 0 0 0 0 0 0 0 0 0 0 0 0 0 0 0 0 0 0 0 0 0 0 0 0 0 0 0 0 0 0 0 0
0 0 0 0 0 0 0 0 -0 -0 -0 0 0 0 0 0 0 0 0 0 -0 0 0 0 0 0 0 0 0 0 0 0 0 0 0 0 0 0 0 0 0 0 0 0
0 0 0 0 0 0 0 0 0 -0 -0 0 0 0 0 0 0 0 0 0 0 0 0 0 0 0 0 0 0 0 0 0 0 0 0 0 0 0 0 0 0 0 0 0
0 0 0 0 0 0 0 0 0 0 0 0 0 0 0 0 0 0 0 0 0 0 0 0 0 0 0 0 0 0 0 0 0 0 0 0 0 0 0 0 0 0 0 0
0 0 0 0 0 0 0 0 0 0 0 0 0 -0 -0 0 0 0 0 0 0 0 0 0 0 0 -0 0 0 0 0 0 0 0 0 0 0 0 0 0 0 0 0 0
0 0 0 0 0 0 0 0 0 0 0 0 0 -0 -0 0 0 0 0 0 0 0 0 0 0 -0 -0 -0 -0 -0 -0 0 0 0 0 0 0 0 0 0 0 0 0 0
0 0 0 0 0 0 0 0 0 0 0 0 0 0 0 0 0 0 0 0 0 0 0 0 -0 -0 -0 -0 -0 -0 -0 -0 0 0 0 0 0 0 0 0 0 0 0 0
0 0 0 0 0 0 0 0 0 0 0 0 0 0 0 0 0 0 0 0 0 0 0 0 0 -0 -0 -0 -0 -0 -0 -0 -0 0 0 0 0 0 0 0 0 0 0 0
0 0 0 0 0 0 0 0 0 0 0 0 0 0 0 0 0 0 0 0 0 0 0 0 0 0 0 -0 0 0 0 -0 -0 -0 0 0 0 0 0 0 0 0 0 0
0 0 0 0 0 0 0 0 0 0 0 0 0 0 0 0 0 0 0 0 0 0 0 0 0 0 0 0 0 0 -0 -0 -0 -0 -0 0 0 0 0 0 0 0 0 0
0 0 0 0 0 0 0 0 0 0 0 0 0 0 0 0 0 0 0 0 0 0 0 0 0 0 0 0 0 -0 -0 -0 -0 -0 -0 -0 0 -0 0 0 0 0 0 0
Wind_Speed
5 5 7 7 9 9 7 7 8 6 4 5 8 10 8 7 7 7 6 6 5 5 4 4 4 4 3 3 3 3 3 4 4 3 2 2 2 2 2 2 2 2 2 2
4 9 8 5 6 7 8 10 9 5 3 5 7 11 8 9 10 8 7 6 5 4 3 4 4 4 4 3 3 3 3 3 3 3 3 2 2 2 2 2 2 2 2 2
10 4 4 6 7 9 10 9 8 6 5 6 7 10 9 8 8 8 7 5 4 4 4 4 4 4 3 3 3 3 3 3 3 3 2 2 2 1 1 2 2 2 2 2
7 6 4 5 7 8 9 4 5 5 5 5 4 8 6 6 7 8 7 6 5 3 3 4 4 3 3 3 3 2 3 3 3 3 3 3 3 3 2 2 2 2 2 3
4 3 4 7 6 5 4 2 4 5 5 6 6 7 7 6 8 8 7 5 4 4 4 4 4 3 3 3 2 2 2 2 2 2 3 3 2 2 2 2 2 2 2 2
5 3 2 3 2 3 2 1 3 4 3 7 8 8 8 6 8 5 5 5 4 3 4 4 4 4 3 2 2 2 2 2 2 2 2 2 3 2 2 2 2 2 2 2
6 6 4 2 2 3 3 2 2 3 5 8 5 7 8 2 2 4 5 5 4 4 4 4 4 4 3 2 2 2 2 2 2 2 1 1 1 2 3 2 2 2 2 2
5 6 6 4 4 5 7 6 5 4 5 4 3 8 6 2 3 4 3 4 5 4 4 4 4 3 3 3 2 1 2 2 2 2 1 1 1 1 1 1 1 2 2 2
4 4 1 2 2 3 4 6 4 3 3 5 6 5 4 2 3 3 2 3 4 4 4 3 3 2 2 3 2 2 2 1 1 1 1 0 1 0 0 1 1 1 1 1
3 3 2 2 2 4 3 2 2 4 4 6 7 7 6 4 4 3 3 3 3 3 3 3 2 2 2 2 2 2 2 2 1 1 1 1 0 0 0 1 1 1 1 1
3 3 3 3 7 7 5 5 5 4 4 4 5 5 1 3 4 4 3 3 3 3 3 2 2 2 2 2 2 2 2 2 1 1 1 1 1 0 1 1 0 0 0 1
3 3 4 6 4 4 6 7 6 5 5 5 5 6 2 2 3 3 2 2 3 3 2 2 3 3 2 2 2 2 1 1 1 1 1 1 1 1 1 0 0 0 0 0
2 3 2 2 3 2 4 5 5 4 3 5 7 7 0 3 2 2 2 2 2 3 2 2 2 2 2 2 2 1 1 1 1 1 1 1 1 0 0 0 0 0 0 0
3 4 6 7 4 3 5 7 7 6 6 7 10 9 6 3 2 2 0 2 2 1 1 2 2 2 2 2 1 1 1 1 1 1 1 1 1 1 0 1 0 0 0 0
2 4 6 8 7 5 7 8 9 11 11 10 10 11 8 5 3 2 0 1 2 1 1 1 1 2 1 2 1 1 1 1 1 1 1 1 1 1 1 1 1 1 1 1
2 3 4 7 6 7 9 10 11 13 12 13 13 12 6 4 2 1 1 1 1 1 0 1 1 1 1 1 1 0 1 1 1 1 1 2 2 2 1 1 1 1 1 1
3 3 3 6 5 5 9 11 12 9 8 8 11 9 3 3 2 2 1 1 0 0 0 0 0 0 0 0 0 0 0 1 1 1 1 2 2 2 2 2 2 1 1 1
5 4 3 3 2 9 8 2 5 7 7 5 5 4 2 2 2 2 1 1 2 2 2 1 1 1 1 1 1 1 1 1 1 1 1 2 2 2 2 2 2 2 2 1
6 6 4 3 5 9 5 2 2 4 5 3 4 4 4 4 2 2 3 3 2 2 2 2 2 1 1 1 1 1 1 1 1 1 1 2 1 2 2 2 2 2 2 2
4 4 4 4 5 8 5 1 2 1 5 2 2 2 2 3 1 2 5 5 4 4 3 3 2 2 2 3 2 2 1 1 1 2 2 2 2 1 2 2 3 3 2 2
4 5 8 8 7 8 4 2 1 4 5 4 2 1 1 1 2 2 3 3 3 3 3 3 3 3 3 3 2 1 1 2 2 3 3 3 2 2 2 2 2 2 2 2
8 6 7 6 8 9 1 2 3 3 3 3 3 2 2 2 3 3 3 3 3 3 3 3 3 3 3 3 2 1 2 3 3 3 3 3 3 3 2 2 2 2 2 2
7 7 5 7 7 2 1 1 1 2 2 3 3 3 2 2 3 4 3 3 3 2 2 3 2 3 4 4 2 2 3 3 3 3 3 3 3 3 2 2 2 2 2 2
3 1 2 4 3 2 1 1 2 2 2 3 3 2 2 2 3 3 2 3 3 2 2 2 2 2 3 4 3 3 3 3 2 3 3 3 2 2 2 2 2 2 2 2
2 2 3 5 3 2 2 1 3 3 3 3 3 3 2 1 2 3 2 2 2 2 2 2 2 2 3 3 3 4 3 3 3 3 3 3 2 2 2 2 2 2 2 3
2 3 4 5 2 2 3 2 2 2 3 3 3 4 3 2 2 2 2 2 2 2 2 2 2 2 3 3 3 4 3 2 2 3 3 2 2 2 2 2 3 4 4 5
Wind_Direction
193 219 221 221 224 250 275 267 263 262 244 241 239 250 247 239 246 246 234 222 217 200 172 150 142 141 143 151 163 173 171 162 160 164 169 177 178 168 165 170 176 172 170 184
212 230 236 249 246 249 257 264 267 273 254 254 257 258 248 239 240 241 234 225 216 194 161 148 145 146 152 160 165 169 171 166 166 170 172 180 171 177 179 170 177 180 174 180
227 237 219 235 245 247 248 251 260 266 276 260 270 265 234 228 225 225 225 217 205 195 176 162 157 154 154 161 161 167 169 170 171 164 161 161 153 155 168 179 188 200 197 185
241 238 240 239 241 245 254 256 274 270 262 254 233 276 242 216 225 217 213 208 200 179 159 152 148 150 156 155 150 155 163 171 174 170 177 179 180 187 194 186 193 203 205 196
240 216 232 238 243 249 251 315 277 266 260 268 234 255 262 204 228 218 203 188 175 156 147 141 139 141 133 131 136 142 147 156 159 174 183 189 194 196 180 174 187 196 203 204
256 269 259 259 257 247 231 287 273 259 248 254 223 223 264 211 217 204 176 169 157 146 138 129 121 113 105 112 118 129 142 140 144 162 176 191 192 187 177 184 195 195 194 204
242 230 211 222 217 210 210 184 235 232 225 244 197 215 249 221 149 158 160 162 151 143 139 134 133 133 127 125 127 144 147 142 141 150 168 198 199 192 188 192 200 200 199 210
227 235 193 197 211 205 209 209 207 226 236 256 211 230 247 148 97 92 112 131 134 137 134 133 141 146 144 141 136 146 153 151 142 149 172 185 178 192 190 195 199 208 210 216
240 237 145 183 228 232 205 219 237 263 280 277 245 238 250 159 140 131 124 124 127 132 132 129 123 125 131 142 149 149 133 128 137 152 149 144 147 143 179 205 197 211 212 228
267 259 221 193 216 240 244 232 193 207 221 249 249 232 230 205 188 171 159 146 132 131 130 134 133 130 119 116 108 99 105 113 93 97 126 130 143 154 172 175 198 218 219 215
256 231 226 196 203 203 195 208 216 229 235 233 257 250 228 162 161 162 151 142 146 139 141 144 139 138 128 112 103 97 85 70 65 67 70 83 85 96 117 124 165 235 227 219
228 239 238 224 230 240 219 211 198 210 234 233 258 264 3 68 112 124 123 135 144 145 144 136 134 130 125 126 118 113 102 83 61 55 70 76 89 89 98 97 44 307 264 250
200 209 239 249 225 209 229 229 227 239 247 233 238 255 356 41 41 103 137 154 158 151 143 139 137 136 135 127 121 117 101 89 70 57 57 59 60 86 80 21 295 328 309 286
251 222 218 230 248 216 234 235 224 219 229 242 240 258 272 300 322 339 61 153 153 143 144 140 125 115 111 109 106 97 87 84 78 67 59 44 21 13 5 5 10 354 313 293
233 243 250 267 275 268 258 244 227 226 231 238 254 258 268 267 265 273 258 129 135 134 125 117 101 83 82 94 87 79 71 63 61 67 50 13 9 17 16 12 359 340 332 327
217 240 265 272 266 263 265 255 241 239 242 249 261 268 277 286 291 302 274 180 189 205 155 76 78 87 85 107 108 76 66 37 45 46 17 12 13 12 10 1 351 354 348 342
207 202 233 261 278 296 261 237 231 230 228 228 244 256 293 302 301 286 280 189 204 75 113 179 125 96 64 41 116 151 7 30 54 37 12 10 8 5 1 359 356 340 331 335
211 208 218 251 272 243 244 241 218 229 244 236 257 296 316 301 311 346 24 62 32 25 12 8 34 26 12 15 27 36 42 31 42 39 14 7 4 355 352 356 349 341 338 330
210 198 210 210 240 265 266 259 227 229 257 254 261 304 345 347 356 18 36 40 28 30 30 32 42 32 27 25 37 51 47 31 22 5 346 345 349 342 343 340 337 333 333 330
225 209 209 214 232 246 260 284 300 244 264 312 295 307 349 5 303 308 6 22 29 28 31 35 43 45 37 29 45 60 29 14 348 342 337 337 334 327 322 319 323 326 323 316
183 206 215 222 237 256 273 276 133 200 263 341 350 347 5 292 281 310 351 16 36 35 33 39 50 48 32 22 36 40 9 349 344 346 342 338 334 324 308 311 314 317 315 315
184 190 206 211 228 249 269 130 182 241 343 354 355 358 348 343 342 346 357 22 35 36 38 41 44 35 25 24 31 12 343 346 354 345 333 328 324 317 310 313 313 311 309 306
201 200 198 202 218 235 132 158 340 4 339 337 344 356 13 347 335 337 352 12 21 33 40 36 44 35 20 14 17 357 341 352 349 338 323 316 315 310 307 302 300 307 307 300
227 252 227 248 254 267 266 345 360 5 359 353 356 3 8 334 328 337 352 4 12 27 33 30 36 29 11 9 7 356 347 350 343 323 315 313 316 316 317 308 297 293 291 287
232 194 229 248 273 311 280 343 17 13 6 3 2 1 5 13 339 333 333 349 3 15 17 24 28 12 356 357 356 349 350 357 340 319 313 315 312 309 318 316 305 296 284 266
206 197 210 239 237 238 273 354 12 5 347 350 356 353 0 6 326 329 328 350 10 9 11 14 8 359 353 352 346 342 344 347 334 319 320 317 313 313 315 317 326 326 309 311